Stations météo

Publicité
Rodez, France (7552): Température de l'air & dewpoint: 22.05.2020 09:00:00 - 28.05.2020 09:00:00 (CEST)Rodez, France (7552): Température de l'air 5cm: 22.05.2020 09:00:00 - 28.05.2020 09:00:00 (CEST)Rodez, France (7552): Vitesse du vent & gusts: 22.05.2020 09:00:00 - 28.05.2020 09:00:00 (CEST)Rodez, France (7552): Direction du vent: 22.05.2020 09:00:00 - 28.05.2020 09:00:00 (CEST)Rodez, France (7552): reduced air pressure: 22.05.2020 09:00:00 - 28.05.2020 09:00:00 (CEST)Rodez, France (7552): visibility: 22.05.2020 09:00:00 - 28.05.2020 09:00:00 (CEST)Rodez, France (7552): Ensoleillement: 22.05.2020 09:00:00 - 28.05.2020 09:00:00 (CEST)Rodez, France (7552): Quantités de précipitations: 22.05.2020 09:00:00 - 28.05.2020 09:00:00 (CEST)
Date & Time tt [°C] td [°C] tt 5cm [°C] ff [km/h] ff [knt] fx [km/h] fx [knt] dd ppp [hPa] vv [km] sd [min] rr [mm]
28.05.2020 09:00:00 18,5 10,3 15,1 11 6 18 10 E 1025,7 51 60 0,0
28.05.2020 08:00:00 14,7 9,5 9,0 5 3 11 6 E 1026,7 55 60 0,0
28.05.2020 07:00:00 11,7 7,8 6,8 4 2 12 6 E 1027,8 57 7 0,0
28.05.2020 06:00:00 10,9 7,6 6,9 5 3 7 4 ESE 1028,0 54 0 0,0
28.05.2020 05:00:00 10,5 7,6 7,4 5 3 9 5 SSE 1028,2 50 0 0,0
28.05.2020 04:00:00 11,4 7,9 7,9 4 2 9 5 S 1028,2 44 0 0,0
28.05.2020 03:00:00 12,5 8,8 8,6 5 3 6 3 SE 1028,1 57 0 0,0
28.05.2020 02:00:00 14,4 9,0 9,9 3 2 6 3 E 1027,8 44 0 0,0
28.05.2020 01:00:00 14,3 10,1 11,3 5 3 9 5 ESE 1028,0 50 0 0,0
28.05.2020 00:00:00 16,8 10,6 14,0 10 5 18 10 ESE 1027,5 60 0 0,0
27.05.2020 23:00:00 17,1 11,1 13,8 11 6 19 10 SE 1027,3 60 0 0,0
27.05.2020 22:00:00 17,6 10,9 14,4 10 5 18 10 SSE 1026,5 60 0 0,0
27.05.2020 21:00:00 19,8 11,3 16,9 12 6 21 11 S 1025,5 55 47 0,0
27.05.2020 20:00:00 23,3 12,3 20,9 9 5 19 10 SSW 1024,5 41 60 0,0
27.05.2020 19:00:00 23,8 11,5 22,1 8 5 17 9 SW 1024,2 51 32 0,0
27.05.2020 18:00:00 25,4 10,0 24,1 9 5 18 10 SSW 1024,2 59 17 0,0
27.05.2020 17:00:00 24,4 8,4 26,7 9 5 19 11 SSE 1024,7 49 28 0,0
27.05.2020 16:00:00 24,8 7,0 31,1 7 4 22 12 E 1024,8 44 50 0,0
27.05.2020 15:00:00 24,5 8,4 32,0 5 3 29 16 SSW 1025,1 36 52 0,0
27.05.2020 14:00:00 24,4 8,4 32,7 7 4 22 12 E 1025,4 25 55 0,0
27.05.2020 13:00:00 23,7 8,9 35,3 12 6 23 13 S 1025,8 55 57 0,0
27.05.2020 12:00:00 23,3 9,3 32,7 9 5 20 11 E 1025,9 60 60 0,0
27.05.2020 11:00:00 21,5 7,7 26,4 6 4 24 13 E 1026,4 41 60 0,0
27.05.2020 10:00:00 19,3 5,4 21,3 18 10 34 18 E 1026,9 38 60 0,0
27.05.2020 09:00:00 16,6 8,0 13,1 7 4 11 6 ESE 1027,2 60 60 0,0
27.05.2020 08:00:00 13,8 6,9 5,3 7 4 11 6 NE 1027,9 60 60 0,0
27.05.2020 07:00:00 8,8 5,4 3,9 5 3 9 5 NE 1028,9 47 7 0,0
27.05.2020 06:00:00 7,3 3,9 3,9 5 3 7 4 NE 1029,2 59 0 0,0
27.05.2020 05:00:00 10,9 4,4 5,2 6 3 13 7 ENE 1028,4 60 0 0,0
27.05.2020 04:00:00 13,0 3,4 6,8 5 3 12 7 ENE 1027,8 60 0 0,0
27.05.2020 03:00:00 13,4 4,3 7,2 6 4 11 6 NE 1027,8 60 0 0,0
27.05.2020 02:00:00 14,2 5,0 7,0 9 5 12 7 ENE 1027,7 60 0 0,0
27.05.2020 01:00:00 14,1 5,4 8,8 2 1 9 5 ENE 1027,9 60 0 0,0
27.05.2020 00:00:00 16,3 5,3 12,8 5 3 23 12 NE 1027,5 60 0 0,0
26.05.2020 23:00:00 17,8 6,3 14,1 13 7 23 12 NNE 1027,1 60 0 0,0
26.05.2020 22:00:00 18,6 7,1 14,7 11 6 22 12 N 1026,4 60 0 0,0
26.05.2020 21:00:00 20,8 7,4 18,6 12 7 31 17 N 1025,4 44 47 0,0
26.05.2020 20:00:00 22,6 8,3 21,6 16 9 38 21 N 1024,7 35 60 0,0
26.05.2020 19:00:00 23,8 9,0 24,8 22 12 35 19 N 1024,3 28 60 0,0
26.05.2020 18:00:00 24,4 9,2 28,8 17 9 33 18 N 1024,2 28 60 0,0
26.05.2020 17:00:00 24,4 9,5 33,3 15 8 29 16 NNW 1024,5 20 60 0,0
26.05.2020 16:00:00 24,2 9,7 36,1 13 7 29 16 NW 1024,9 34 60 0,0
26.05.2020 15:00:00 23,6 9,6 36,6 14 8 31 17 N 1025,4 39 60 0,0
26.05.2020 14:00:00 22,6 7,9 35,2 13 7 28 15 N 1026,0 16 60 0,0
26.05.2020 13:00:00 21,6 9,2 32,4 13 7 23 13 NW 1026,5 51 60 0,0
26.05.2020 12:00:00 20,5 9,1 28,9 11 6 24 13 NNW 1026,7 60 60 0,0
26.05.2020 11:00:00 18,6 9,1 24,9 11 6 19 10 NNW 1027,1 41 60 0,0
26.05.2020 10:00:00 17,3 8,7 19,0 8 5 17 9 N 1027,4 49 60 0,0
26.05.2020 09:00:00 16,2 8,4 13,0 9 5 15 8 NNE 1027,5 56 60 0,0
26.05.2020 08:00:00 14,4 8,1 5,3 4 2 9 5 NE 1027,9 38 60 0,0
26.05.2020 07:00:00 7,3 5,6 4,7 3 2 5 3 SE 1029,5 56 7 0,0
26.05.2020 06:00:00 8,4 5,9 5,0 0 0 9 5 N 1028,7 60 0 0,0
26.05.2020 05:00:00 10,6 6,7 6,1 3 2 7 4 NE 1028,2 60 0 0,0
26.05.2020 04:00:00 12,1 7,4 8,0 4 2 14 7 NE 1028,0 60 0 0,0
26.05.2020 03:00:00 13,4 7,8 8,8 9 5 14 8 NNE 1027,9 60 0 0,0
26.05.2020 02:00:00 13,9 7,9 9,6 4 2 11 6 NE 1028,0 60 0 0,0
26.05.2020 01:00:00 14,8 8,1 10,9 6 3 14 8 NNE 1027,8 60 0 0,0
26.05.2020 00:00:00 16,1 8,1 13,7 9 5 20 11 NNE 1027,5 60 0 0,0
25.05.2020 23:00:00 17,1 8,5 14,1 10 5 23 13 N 1027,2 60 0 0,0
25.05.2020 22:00:00 18,9 8,8 15,8 12 7 26 14 N 1026,2 60 0 0,0
25.05.2020 21:00:00 20,7 9,6 17,7 13 7 24 13 N 1025,1 46 46 0,0
25.05.2020 20:00:00 22,8 9,6 21,2 16 9 28 15 NNW 1024,2 57 60 0,0
25.05.2020 19:00:00 23,9 9,1 24,6 16 9 26 14 NW 1023,7 56 60 0,0
25.05.2020 18:00:00 24,3 9,5 29,4 12 6 27 14 NNW 1023,9 19 60 0,0
25.05.2020 17:00:00 24,7 8,6 34,6 10 5 21 12 NNW 1024,0 20 60 0,0
25.05.2020 16:00:00 24,0 8,0 37,7 6 3 24 13 NNW 1024,7 60 60 0,0
25.05.2020 15:00:00 23,4 6,2 36,0 8 4 34 18 NNW 1025,2 55 60 0,0
25.05.2020 14:00:00 22,5 7,1 34,7 7 4 23 12 E 1025,7 43 60 0,0
25.05.2020 13:00:00 21,5 5,0 32,0 10 6 27 14 E 1026,2 39 60 0,0
25.05.2020 12:00:00 20,3 7,0 28,4 10 6 26 14 ENE 1026,4 42 60 0,0
25.05.2020 11:00:00 18,7 6,5 24,3 11 6 22 12 NE 1026,9 49 60 0,0
25.05.2020 10:00:00 16,7 5,0 18,2 14 8 24 13 ENE 1027,7 58 60 0,0
25.05.2020 09:00:00 14,8 6,1 10,9 11 6 18 10 E 1028,0 60 60 0,0
25.05.2020 08:00:00 12,0 5,6 5,1 4 2 11 6 NE 1028,7 60 60 0,0
25.05.2020 07:00:00 8,8 5,5 2,1 9 5 11 6 ENE 1029,4 54 6 0,0
25.05.2020 06:00:00 5,7 4,8 2,0 0 0 6 3 N 1030,3 60 0 0,0
25.05.2020 05:00:00 4,8 3,5 2,4 3 2 6 3 ESE 1030,4 59 0 0,0
25.05.2020 04:00:00 6,3 4,5 3,4 0 0 5 3 N 1030,0 60 0 0,0
25.05.2020 03:00:00 7,0 4,5 4,0 2 1 4 2 SSW 1030,0 60 0 0,0
25.05.2020 02:00:00 9,3 4,5 6,3 3 2 9 5 S 1029,5 60 0 0,0
25.05.2020 01:00:00 12,3 5,9 10,0 8 4 24 13 NE 1029,2 60 0 0,0
25.05.2020 00:00:00 13,2 5,8 10,2 12 6 23 12 N 1029,4 60 0 0,0
24.05.2020 23:00:00 14,0 5,9 11,6 14 8 23 12 N 1029,5 60 0 0,0
24.05.2020 22:00:00 15,1 6,1 12,7 14 7 29 16 N 1028,9 60 0 0,0
24.05.2020 21:00:00 16,7 6,2 15,1 15 8 31 17 NNE 1028,1 49 45 0,0
24.05.2020 20:00:00 18,3 6,5 17,3 17 9 33 18 NNE 1027,4 34 60 0,0
24.05.2020 19:00:00 19,2 6,3 20,9 20 11 35 19 NNE 1027,4 33 60 0,0
24.05.2020 18:00:00 20,2 6,2 25,0 15 8 36 20 N 1027,5 31 60 0,0
24.05.2020 17:00:00 19,7 6,4 29,2 16 9 31 17 N 1027,9 15 60 0,0
24.05.2020 16:00:00 19,8 7,2 30,3 17 9 34 19 NNE 1028,4 30 60 0,0
24.05.2020 15:00:00 18,6 5,4 30,6 17 9 37 20 N 1029,1 30 60 0,0
24.05.2020 14:00:00 18,4 5,6 27,8 18 10 37 20 NNE 1029,4 20 60 0,0
24.05.2020 13:00:00 17,6 6,5 26,5 20 11 40 22 N 1030,0 20 60 0,0
24.05.2020 12:00:00 15,7 8,2 21,8 16 9 30 16 NNW 1030,8 35 60 0,0
24.05.2020 11:00:00 13,5 7,7 17,4 15 8 26 14 N 1031,6 20 60 0,0
24.05.2020 10:00:00 12,2 7,3 12,6 14 8 25 14 NNW 1032,2 45 60 0,0
24.05.2020 09:00:00 10,4 6,9 8,9 11 6 18 10 NW 1032,4 50 60 0,0
24.05.2020 08:00:00 7,7 7,4 2,4 8 4 11 6 WNW 1032,7 48 60 0,0
24.05.2020 07:00:00 3,0 2,6 1,8 0 0 4 2 N 1034,0 0,6 10 0,0
24.05.2020 06:00:00 3,8 3,4 1,3 2 1 4 2 NW 1033,5 0,1 0 0,0
24.05.2020 05:00:00 4,3 3,4 1,7 2 1 8 4 SE 1033,8 18 0 0,0
24.05.2020 04:00:00 5,8 4,9 2,1 5 3 11 6 NW 1033,7 2,3 0 0,0
24.05.2020 03:00:00 6,9 6,3 2,5 8 5 12 7 NW 1033,9 59 0 0,0
24.05.2020 02:00:00 6,8 5,4 3,1 9 5 16 9 NW 1034,1 60 0 0,0
24.05.2020 01:00:00 8,5 6,6 5,2 8 4 14 8 NNW 1033,9 60 0 0,0
24.05.2020 00:00:00 9,1 7,7 7,2 9 5 21 11 NW 1033,5 60 0 0,0
23.05.2020 23:00:00 9,3 7,7 7,4 11 6 23 12 NW 1033,1 60 0 0,0
23.05.2020 22:00:00 10,7 8,1 9,7 16 8 29 16 NW 1032,2 60 0 0,0
23.05.2020 21:00:00 11,3 9,0 10,3 18 10 29 16 WNW 1031,5 29 13 0,0
23.05.2020 20:00:00 11,0 9,7 11,1 17 9 34 18 WNW 1031,4 60 0 0,0
23.05.2020 19:00:00 11,1 10,0 11,3 16 9 29 16 WNW 1031,1 57 0 0,0
23.05.2020 18:00:00 11,3 10,2 11,1 12 6 29 16 NW 1030,8 54 0 1,0
23.05.2020 17:00:00 13,1 9,9 14,5 14 7 29 16 NW 1030,6 20 0 0,0
23.05.2020 16:00:00 14,5 9,7 16,4 16 9 36 20 NW 1030,1 60 0 0,0
23.05.2020 15:00:00 14,7 9,9 17,6 27 15 37 20 NW 1029,8 60 0 0,0
23.05.2020 14:00:00 14,0 10,4 13,9 11 6 37 20 NNW 1029,2 54 0 0,0
23.05.2020 13:00:00 13,3 11,7 13,7 23 12 40 22 WNW 1029,1 42 0 0,0
23.05.2020 12:00:00 13,8 13,3 14,3 19 11 36 20 NW 1028,2 19 0 0,2
23.05.2020 11:00:00 14,4 14,1 14,9 23 13 31 17 WNW 1027,4 7 0 0,0
23.05.2020 10:00:00 15,0 14,5 15,3 17 9 25 13 W 1026,4 0,3 0 0,0
23.05.2020 09:00:00 15,5 14,9 15,9 19 10 26 14 W 1025,8 8 0 0,0
23.05.2020 08:00:00 16,5 15,5 15,0 12 7 18 10 WSW 1024,8 19 0 0,0
23.05.2020 07:00:00 14,8 13,8 12,3 3 1 10 5 S 1024,6 25 0 0,0
23.05.2020 06:00:00 13,7 12,1 11,1 3 1 8 4 ESE 1024,3 20 0 0,0
23.05.2020 05:00:00 13,9 12,3 11,3 4 2 8 4 S 1024,3 19 0 0,0
23.05.2020 04:00:00 14,7 13,2 11,0 0 0 13 7 N 1024,2 37 0 0,0
23.05.2020 03:00:00 15,0 13,0 11,2 7 4 12 6 SE 1024,1 40 0 0,0
23.05.2020 02:00:00 15,4 13,2 11,7 5 3 9 5 SE 1024,3 44 0 0,0
23.05.2020 01:00:00 15,7 13,0 12,4 8 4 9 5 SSE 1024,5 51 0 0,0
23.05.2020 00:00:00 17,5 13,8 13,0 5 3 8 4 S 1024,1 60 0 0,0
22.05.2020 23:00:00 17,8 13,7 13,8 7 4 8 4 S 1024,0 58 0 0,0
22.05.2020 22:00:00 19,2 12,9 14,8 6 3 10 5 SW 1023,3 60 0 0,0
22.05.2020 21:00:00 22,6 14,9 18,3 8 5 10 5 WSW 1022,1 60 44 0,0
22.05.2020 20:00:00 25,9 15,3 23,0 7 4 16 9 WSW 1020,8 57 60 0,0
22.05.2020 19:00:00 26,6 14,4 26,8 10 5 22 12 WSW 1020,6 54 60 0,0
22.05.2020 18:00:00 26,9 15,6 29,6 12 6 23 12 W 1020,9 56 52 0,0
22.05.2020 17:00:00 27,9 16,2 31,5 9 5 24 13 WSW 1020,7 44 54 0,0
22.05.2020 16:00:00 26,1 15,2 30,8 9 5 24 13 W 1021,5 60 32 0,0
22.05.2020 15:00:00 26,2 15,6 32,4 9 5 20 11 SW 1021,7 46 39 0,0
22.05.2020 14:00:00 26,7 15,1 38,4 6 3 24 13 WNW 1021,6 35 58 0,0
22.05.2020 13:00:00 25,9 15,9 35,2 9 5 24 13 SSW 1021,9 20 60 0,0
22.05.2020 12:00:00 25,1 13,9 33,0 10 5 19 11 W 1022,1 58 60 0,0
22.05.2020 11:00:00 24,3 14,4 27,6 6 4 12 7 SW 1021,8 60 60 0,0
22.05.2020 10:00:00 21,9 15,3 20,9 4 2 12 7 SSE 1022,1 50 60 0,0
22.05.2020 09:00:00 18,0 13,3 15,2 4 2 8 5 E 1022,5 41 60 0,0

tt = Température de l'air
td = dewpoint
tt 5cm = Température de l'air 5cm
ff = Vitesse du vent
fx = gusts
dd = Direction du vent
ppp = reduced air pressure
vv = visibility
sd = Ensoleillement
rr = Quantités de précipitations

stations d'obs. à proximité